Wind_Speed
5 5 5 4 4 3 3 3 3 2 1 1 1 1 1 1 1 1 1 1 1 1 1 2 2 2 2 2 2 2 2 3 3 4 4 4 4 4 3 3 3 3 3
7 6 6 5 5 4 3 3 3 2 2 2 2 2 2 1 1 1 1 1 1 1 1 1 1 1 2 2 2 2 2 3 3 4 4 5 5 4 4 4 3 3 4
8 8 7 6 6 5 4 4 4 3 3 2 3 3 2 2 2 2 2 2 2 2 1 1 1 1 1 1 2 2 2 3 3 4 4 4 5 5 4 4 4 4 4
10 10 9 8 8 7 6 6 5 5 4 4 4 4 3 3 3 3 3 3 3 2 2 2 2 1 1 1 2 2 2 3 3 3 4 4 4 4 4 5 5 5 5
11 11 10 10 9 8 8 7 7 6 5 5 5 5 4 3 4 4 4 4 4 3 3 3 2 2 2 2 2 2 2 2 3 3 3 4 4 4 5 5 5 5 5
12 12 11 11 11 10 9 9 9 8 7 6 6 6 5 5 4 5 4 4 4 4 3 3 3 3 3 3 3 3 3 3 3 3 3 3 4 5 6 6 6 6 6
12 13 13 12 12 12 11 11 11 10 9 8 8 8 7 6 6 6 6 5 5 5 5 4 4 4 3 3 3 4 4 4 3 3 4 4 4 5 6 6 6 7 7
12 13 14 13 13 13 13 12 12 12 11 10 10 9 8 8 7 7 7 7 7 7 7 6 6 5 5 5 5 5 5 5 5 5 5 5 5 5 6 7 7 8 8
14 14 15 15 15 15 14 14 13 13 13 12 12 11 10 10 9 9 9 9 9 9 8 8 8 7 7 7 7 7 7 7 7 7 7 7 7 7 8 8 8 9 9
14 15 15 15 15 16 16 16 15 15 14 14 14 13 12 12 11 11 10 11 10 10 10 10 10 10 9 9 9 9 9 9 9 9 9 9 9 9 9 10 10 11 11
13 14 15 16 16 17 18 17 17 17 16 16 16 15 15 14 14 13 12 12 12 12 12 12 12 11 11 11 12 12 12 11 11 12 12 12 12 12 12 12 12 13 13
13 14 15 17 16 17 18 19 19 18 18 17 17 17 17 16 16 15 15 15 15 14 14 14 14 14 14 14 14 14 15 15 14 15 15 15 15 15 15 15 15 15 16
13 14 14 16 16 17 18 18 19 19 19 19 18 18 18 18 18 17 17 17 17 16 16 16 16 17 17 17 17 17 18 18 17 17 17 18 18 18 19 18 18 19 19
12 14 14 15 16 17 17 18 18 19 19 19 19 19 19 19 18 18 19 19 19 18 18 18 18 19 20 19 19 19 20 20 20 20 20 20 21 21 21 21 21 22 22
12 13 14 15 16 17 18 19 20 19 19 19 19 19 20 20 20 20 20 20 20 20 20 20 20 21 21 21 21 22 22 23 23 23 23 24 24 24 24 24 24 24 25
13 14 14 15 16 18 19 19 20 20 20 20 21 21 21 21 21 21 21 21 21 21 21 21 22 22 23 23 23 24 24 24 25 25 25 26 26 27 27 27 27 27 28
13 14 15 15 16 17 19 20 20 20 20 20 21 21 21 22 22 23 23 23 23 24 24 24 24 24 25 25 26 26 26 26 25 26 27 27 28 28 29 29 29 30 31
12 13 15 16 17 17 18 19 20 20 21 21 21 22 22 23 23 23 23 24 24 25 25 25 25 26 26 27 28 28 28 28 28 27 28 28 29 29 30 30 31 32 33
10 12 13 14 15 17 17 18 18 19 20 20 22 22 22 22 23 23 24 25 25 25 26 27 28 29 29 29 30 30 30 30 31 31 32 32 32 33 33 33 33 34 35
11 12 12 13 14 15 16 17 17 19 20 20 22 23 23 23 23 24 25 26 27 27 28 29 30 31 31 31 32 33 33 33 33 34 34 35 35 36 36 36 36 37 38
11 11 12 12 12 13 14 16 17 18 19 20 21 22 23 23 24 24 26 27 28 29 29 30 31 32 32 32 32 34 34 35 34 34 35 35 36 37 38 38 38 39 40
11 11 11 12 12 13 14 15 16 16 17 19 20 21 21 23 24 25 26 28 28 28 29 30 31 32 32 32 32 33 34 34 35 36 37 37 38 39 40 40 40 42 42
11 11 11 12 13 13 14 15 16 17 18 20 21 22 23 23 24 25 26 27 27 27 29 30 31 31 32 31 32 34 35 36 37 38 39 39 41 41 42 43 44 44 45
10 10 10 11 12 13 14 15 17 18 19 20 21 22 23 24 25 25 26 26 27 28 29 31 31 31 31 33 34 35 36 37 37 38 39 40 41 43 44 45 46 46 47
11 11 12 13 13 13 14 15 16 18 19 20 21 22 24 24 25 26 27 28 28 28 29 30 31 33 34 35 35 35 36 37 38 40 41 42 43 44 45 46 48 48 49
12 12 13 14 14 15 16 17 17 18 18 19 21 22 24 25 26 27 27 28 28 29 30 31 33 34 34 34 35 35 36 37 38 40 41 43 44 45 45 46 48 50 51
Wind_Direction
254 258 273 266 266 277 264 250 247 253 230 189 180 190 198 250 247 307 243 268 305 315 311 295 291 292 288 280 272 261 247 240 238 243 242 242 245 248 253 252 252 257 262
248 254 263 256 256 260 243 246 247 253 236 210 207 210 211 231 265 281 279 282 298 306 309 294 287 291 290 286 277 258 256 253 250 247 241 238 240 240 241 243 258 270 267
241 245 250 247 248 253 246 237 241 242 233 215 216 222 220 228 255 267 274 281 287 290 287 274 282 290 301 289 269 256 259 256 254 250 244 237 236 242 244 245 256 271 278
239 239 241 243 244 243 236 232 236 235 229 229 232 226 218 234 253 254 259 263 273 272 266 264 260 265 270 265 248 248 247 245 256 252 245 239 235 239 246 247 256 267 278
239 237 238 238 237 238 234 230 233 235 235 239 240 239 231 232 243 251 253 257 260 263 263 262 257 262 265 253 239 238 237 243 252 248 245 240 239 246 252 252 258 264 274
242 240 239 237 234 232 231 228 230 233 236 240 237 236 235 238 240 246 252 255 250 251 254 257 258 261 268 261 245 237 245 248 248 246 244 245 253 260 262 257 259 264 273
243 241 241 238 234 232 229 227 229 231 235 238 237 236 236 240 244 248 250 251 249 248 247 251 256 257 264 258 246 244 252 251 246 242 247 254 261 268 264 256 259 263 269
244 242 242 239 235 231 229 229 230 232 234 234 235 236 237 242 248 250 249 249 248 249 249 250 254 252 254 255 252 248 251 251 250 252 258 262 265 268 267 260 264 266 270
245 243 241 238 234 232 231 231 232 233 235 235 236 238 242 244 249 251 252 252 252 254 255 255 260 257 254 252 251 253 252 253 257 260 263 266 269 272 271 266 267 270 273
245 242 240 236 237 234 232 232 234 235 236 238 239 241 245 247 248 252 253 253 254 254 255 257 260 261 261 257 254 256 257 259 260 262 265 267 269 273 274 270 269 271 274
243 241 242 240 240 235 233 234 238 239 240 241 241 244 248 249 249 250 251 253 255 257 258 257 258 259 260 260 259 259 259 263 264 264 265 267 268 269 270 271 270 271 273
247 244 246 241 237 234 235 238 240 240 242 242 244 247 249 251 252 252 253 254 255 256 259 260 258 258 259 260 262 263 261 261 264 266 266 268 269 269 270 271 272 273 274
252 247 245 241 238 237 239 241 241 241 243 242 244 247 250 252 253 255 256 257 257 258 259 260 261 262 262 263 262 263 262 262 265 266 267 270 271 271 272 273 274 274 275
252 248 246 242 240 241 242 244 244 244 244 245 245 248 250 252 253 256 257 258 259 259 261 263 262 264 264 264 264 264 264 263 264 266 268 270 272 273 274 275 276 275 276
254 250 246 246 244 244 245 246 247 246 246 248 247 248 250 254 255 256 258 259 260 261 264 266 266 267 266 268 269 267 268 268 267 268 269 270 272 273 274 275 276 276 276
258 256 249 248 246 245 247 249 247 248 249 249 249 251 253 256 257 258 258 260 261 262 264 268 269 269 266 267 268 271 271 270 271 271 270 271 272 273 274 276 275 275 277
261 258 255 255 252 250 248 248 250 251 251 252 252 252 254 257 258 259 262 263 264 264 265 268 268 269 268 268 267 269 270 271 273 274 273 273 273 273 274 274 274 275 276
265 262 257 257 256 251 250 251 250 253 251 252 254 256 257 260 261 261 264 266 267 266 266 268 269 271 271 271 270 268 268 269 272 272 273 274 274 274 274 275 275 275 275
275 273 264 258 256 254 251 250 252 256 253 253 256 259 261 264 264 263 266 267 269 269 270 270 271 272 272 271 271 269 267 268 270 272 273 273 274 275 274 273 275 276 276
279 276 269 262 260 256 253 253 256 260 257 258 259 259 261 263 265 265 266 269 272 273 273 273 273 275 274 273 271 271 269 269 271 273 272 273 274 274 273 273 275 277 277
279 278 274 267 265 263 260 260 260 263 261 260 260 260 262 264 266 268 270 274 275 275 274 274 274 276 276 274 272 272 273 272 272 273 273 273 273 273 273 273 275 277 277
284 284 279 269 268 267 265 267 265 265 264 265 264 264 267 270 271 273 275 277 277 277 276 276 277 277 277 275 274 274 274 274 274 274 274 274 274 274 274 275 276 277 277
286 285 279 276 274 273 270 272 273 270 268 269 267 266 268 272 274 276 278 279 277 277 277 277 277 279 279 277 277 277 277 276 277 276 275 276 276 277 276 276 276 277 276
291 289 289 289 284 280 277 276 277 273 271 270 268 268 269 271 273 277 279 279 278 279 279 279 278 279 280 281 280 279 279 279 279 277 276 278 277 277 277 277 277 277 278
296 293 291 288 287 286 283 279 279 279 276 273 272 272 272 275 276 278 279 280 280 280 281 281 281 282 281 281 281 280 280 280 281 280 279 280 280 280 280 281 281 280 280
302 299 296 292 290 291 288 283 284 283 281 279 278 277 277 278 280 280 281 281 282 284 285 285 284 283 283 282 282 283 283 283 282 282 281 283 283 283 282 282 282 282 281
Height
5903 5903 5904 5904 5904 5904 5904 5904 5905 5905 5905 5905 5905 5905 5905 5904 5904 5904 5904 5904 5904 5903 5903 5902 5902 5901 5901 5900 5900 5900 5900 5900 5900 5899 5899 5899 5900 5900 5899 5899 5899 5899 5899
5901 5902 5902 5903 5903 5903 5903 5904 5904 5904 5905 5905 5905 5905 5905 5904 5904 5904 5904 5904 5903 5903 5902 5902 5901 5901 5900 5900 5900 5900 5899 5899 5899 5899 5898 5899 5899 5899 5899 5899 5899 5898 5898
5900 5901 5901 5901 5902 5902 5903 5903 5903 5903 5904 5904 5905 5905 5904 5904 5904 5904 5904 5904 5903 5903 5902 5902 5901 5901 5900 5900 5899 5899 5899 5898 5898 5898 5898 5898 5898 5898 5898 5898 5898 5898 5897
5898 5899 5899 5900 5901 5901 5902 5902 5902 5903 5903 5904 5904 5904 5904 5904 5903 5903 5903 5903 5903 5902 5902 5902 5901 5900 5900 5899 5899 5899 5898 5898 5897 5897 5897 5897 5897 5897 5897 5897 5897 5897 5896
5895 5896 5897 5898 5898 5899 5900 5901 5901 5902 5902 5903 5903 5903 5903 5903 5903 5903 5902 5902 5902 5902 5902 5901 5901 5900 5900 5899 5899 5898 5897 5897 5897 5897 5896 5896 5896 5896 5896 5896 5896 5896 5895
5893 5894 5895 5895 5896 5897 5898 5899 5900 5901 5901 5902 5902 5902 5902 5902 5902 5902 5902 5902 5901 5901 5901 5900 5900 5900 5899 5899 5898 5898 5897 5896 5896 5896 5896 5895 5895 5895 5895 5894 5894 5894 5894
5889 5891 5892 5893 5894 5895 5896 5897 5898 5898 5899 5900 5901 5901 5901 5901 5901 5901 5901 5901 5900 5900 5900 5900 5899 5899 5898 5898 5897 5897 5896 5896 5895 5895 5895 5894 5894 5893 5893 5893 5893 5893 5892
5886 5887 5889 5890 5891 5892 5893 5894 5895 5896 5897 5898 5899 5899 5900 5900 5900 5900 5900 5900 5899 5899 5899 5898 5898 5898 5897 5897 5896 5896 5895 5895 5894 5894 5894 5893 5892 5892 5891 5891 5891 5891 5890
5883 5884 5885 5887 5888 5889 5890 5891 5893 5894 5895 5896 5896 5897 5898 5898 5898 5899 5898 5898 5898 5898 5897 5897 5897 5896 5896 5895 5895 5894 5894 5894 5893 5893 5892 5892 5891 5890 5890 5889 5889 5888 5888
5878 5880 5881 5883 5884 5886 5887 5888 5890 5891 5892 5893 5894 5894 5895 5896 5896 5896 5896 5896 5896 5896 5895 5895 5894 5894 5894 5893 5893 5893 5892 5892 5891 5891 5890 5889 5889 5888 5888 5887 5886 5886 5885
5875 5877 5878 5879 5880 5882 5884 5885 5887 5888 5889 5890 5890 5891 5892 5893 5893 5893 5893 5894 5894 5893 5893 5893 5892 5892 5891 5891 5891 5890 5890 5889 5889 5888 5888 5887 5886 5885 5885 5884 5883 5883 5882
5872 5873 5874 5876 5877 5878 5880 5881 5883 5884 5885 5886 5887 5888 5889 5889 5890 5890 5890 5890 5890 5890 5890 5889 5889 5889 5888 5888 5887 5887 5886 5886 5885 5885 5884 5883 5883 5882 5881 5881 5880 5879 5878
5869 5870 5871 5872 5873 5875 5876 5877 5878 5879 5881 5882 5883 5884 5884 5885 5886 5886 5887 5886 5886 5887 5887 5886 5886 5885 5884 5884 5883 5883 5882 5882 5881 5881 5880 5879 5879 5878 5877 5876 5876 5875 5874
5866 5866 5867 5868 5869 5870 5872 5873 5874 5875 5876 5877 5878 5879 5880 5880 5881 5881 5882 5882 5882 5882 5882 5882 5882 5881 5880 5879 5879 5879 5878 5877 5876 5876 5875 5874 5874 5873 5872 5871 5870 5869 5868
5862 5862 5863 5864 5865 5866 5868 5869 5870 5871 5872 5873 5874 5874 5875 5875 5876 5876 5877 5877 5878 5877 5877 5877 5876 5876 5875 5874 5874 5873 5873 5872 5871 5870 5869 5869 5868 5867 5866 5865 5864 5863 5862
5858 5859 5859 5860 5861 5862 5863 5864 5865 5866 5867 5868 5869 5870 5870 5871 5871 5871 5871 5872 5872 5872 5872 5872 5871 5870 5869 5869 5868 5868 5867 5866 5865 5864 5863 5862 5861 5860 5859 5858 5857 5856 5855
5855 5855 5855 5856 5856 5857 5857 5858 5860 5861 5862 5863 5864 5865 5865 5865 5866 5866 5866 5866 5866 5866 5866 5866 5865 5864 5863 5862 5862 5861 5860 5859 5858 5857 5856 5855 5854 5853 5852 5850 5849 5848 5847
5851 5851 5851 5851 5852 5852 5853 5854 5855 5856 5857 5858 5858 5859 5860 5860 5860 5860 5860 5860 5860 5859 5860 5859 5858 5858 5857 5856 5855 5854 5853 5852 5851 5850 5849 5847 5846 5845 5843 5842 5841 5839 5838
5848 5848 5847 5847 5847 5848 5849 5849 5850 5851 5851 5852 5853 5854 5854 5854 5854 5854 5854 5854 5853 5853 5852 5852 5851 5850 5849 5848 5847 5846 5845 5844 5842 5842 5840 5839 5838 5836 5835 5833 5831 5830 5828
5845 5844 5844 5843 5843 5843 5844 5845 5846 5846 5846 5847 5847 5848 5848 5848 5848 5848 5848 5847 5847 5846 5845 5844 5843 5842 5841 5840 5839 5837 5836 5835 5834 5833 5831 5830 5828 5827 5825 5823 5822 5820 5818
5842 5841 5840 5840 5840 5840 5840 5840 5841 5840 5841 5841 5841 5842 5842 5842 5842 5841 5841 5840 5839 5839 5838 5837 5836 5834 5833 5831 5830 5828 5827 5825 5824 5823 5821 5820 5818 5816 5815 5813 5811 5810 5807
5838 5837 5837 5837 5837 5836 5836 5836 5835 5835 5835 5835 5836 5836 5836 5835 5835 5835 5834 5833 5832 5831 5830 5829 5827 5826 5824 5822 5821 5819 5818 5816 5815 5814 5811 5809 5808 5806 5804 5802 5800 5798 5796
5835 5834 5833 5833 5833 5833 5832 5831 5831 5830 5830 5830 5830 5830 5830 5830 5829 5828 5827 5826 5825 5824 5823 5821 5819 5817 5815 5813 5811 5810 5808 5806 5804 5802 5801 5799 5797 5794 5792 5790 5788 5785 5783
5832 5831 5831 5830 5830 5829 5828 5827 5826 5825 5825 5825 5824 5824 5824 5823 5823 5822 5821 5819 5817 5816 5814 5812 5811 5809 5806 5804 5802 5800 5798 5796 5793 5792 5790 5788 5785 5783 5780 5777 5774 5772 5769
5829 5828 5827 5827 5826 5825 5823 5822 5821 5820 5819 5819 5818 5818 5817 5817 5816 5815 5813 5812 5810 5808 5806 5804 5802 5800 5797 5795 5792 5790 5787 5785 5782 5780 5778 5776 5773 5770 5767 5764 5761 5758 5755
5826 5825 5824 5823 5821 5820 5819 5818 5817 5815 5814 5813 5812 5811 5811 5810 5809 5807 5805 5803 5802 5800 5798 5795 5793 5790 5787 5785 5782 5779 5777 5774 5772 5769 5767 5764 5760 5757 5754 5751 5747 5743 5740